Flag for U.S.A. Weather past 2 weeks in Baltimore, Maryland, U.S.A.

Now
87 °F

Broken clouds.


Feels Like: 88 °F
Forecast: 70 / 89 °F
Wind: 9 mph from South

Location: Baltimore-Washington International Airport

Current Time: Aug 31, 2015 at 6:02:11 PM

Latest Report: Aug 31, 2015 at 4:54 PM


Visibility: 10 mi

Pressure: 30.02 "Hg

Humidity: 46%

Dew point: 64 °F

Location of BaltimoreLocation

Historic Weather in Baltimore — Graph

°F

Baltimore temperature yesterday

Maximum temperature yesterday: 85 °F (at 3:54 PM)
Minimum temperature yesterday: 65 °F (at 5:54 AM)
Average temperature yesterday: 76 °F

Past Weeks' High & Low Weather Summary

 TemperatureHumidityPressure
High94 °F (Aug 17, 1:54 PM)97% (Aug 20, 6:54 AM)30.21 "Hg (Aug 20, 6:54 AM)
Low57 °F (Aug 23, 3:54 AM)34% (Aug 22, 1:54 PM)29.80 "Hg (Aug 24, 6:54 PM)
Average75 °F68%30.03 "Hg
* Reported Aug 16 3:54 PM — Aug 31 3:54 PM, Baltimore, Weather by CustomWeather, © 2015

Note: Actual official high and low records may vary slightly from our data, if they occured in-between our weather recording intervals... More about our weather records

Advertising

Baltimore weather history for previous 24 hours

 ConditionsComfort  
Time TempWeatherWind HumidityBarometerVisibility
3:54 PM
Mon, Aug 31
86 °FBroken clouds.6 mph48%30.03 "Hg10 mi
2:54 PM84 °FBroken clouds.9 mph51%30.04 "Hg10 mi
1:54 PM85 °FBroken clouds.7 mph53%30.05 "Hg10 mi
12:54 PM86 °FMore clouds than sun.9 mph53%30.06 "Hg10 mi
11:54 AM86 °FBroken clouds.8 mph55%30.08 "Hg10 mi
10:54 AM84 °FBroken clouds.7 mph55%30.09 "Hg10 mi
9:54 AM81 °FBroken clouds.7 mph60%30.07 "Hg10 mi
8:54 AM78 °FBroken clouds.6 mph69%30.07 "Hg10 mi
7:54 AM74 °FLight rain. Broken clouds.5 mph79%30.07 "Hg9 mi
6:54 AM73 °FOvercast.No wind79%30.06 "Hg10 mi
5:54 AM75 °FPassing clouds.3 mph74%30.04 "Hg10 mi
4:54 AM75 °FMostly cloudy.3 mph71%30.04 "Hg10 mi
3:54 AM75 °FMostly cloudy.3 mph71%30.04 "Hg10 mi
2:54 AM75 °FMostly cloudy.5 mph71%30.05 "Hg10 mi
1:54 AM75 °FMostly cloudy.3 mph71%30.06 "Hg10 mi
12:54 AM76 °FMostly cloudy.3 mph72%30.07 "Hg10 mi
11:54 PM
Sun, Aug 30
77 °FMostly cloudy.No wind69%30.07 "Hg10 mi
10:54 PM78 °FMostly cloudy.5 mph66%30.07 "Hg10 mi
9:54 PM79 °FMostly cloudy.5 mph65%30.07 "Hg10 mi
8:54 PM79 °FMostly cloudy.5 mph65%30.06 "Hg10 mi
7:54 PM80 °FCloudy.6 mph64%30.05 "Hg10 mi
6:54 PM81 °FMostly cloudy.5 mph65%30.04 "Hg10 mi
Weather by CustomWeather, © 2015

See weather overviewHow to use our weather pages